Вернуться в каталог

SL-8 R/B

АктивенLEO
NORAD 20557·ROCKET BODY·🇷🇺 Russia

Запущен Apr 6, 1990 с Plesetsk Cosmodrome

Loading…

Ближайшие Пролёты (ближайшие 24 часа)

TLE

СвежийSource: Space-Track

Эпоха: Sep 14, 2026, 15:00 UTC

1 20557U 90029J   26257.62538169  .00000002  00000-0  14869-3 0  9994
2 20557  73.9864 307.3401 0151867  33.1983 134.6716 12.23309488626913

Отслеживайте SL-8 R/B в реальном времени с AllMySat

Download on the App Store